• In Uzbekistan
  • List of Countries
  • For 7 days
  • Water Temperature
  • Satellite Maps
  • Weather Map
  • Weather Widgets
  • user-avatar
    Login

    Hourly Weather Trojca

    Today, 24 September, Monday

    Time Temperature Precipitation Wind Pressure Humidity
    00:00 +13°C° 0.1 mm 10 mps 724 mmHg 60%
    01:00 +13°C° 0.1 mm 10 mps 724 mmHg 64%
    02:00 +14°C° 0 mm 5 mps 722 mmHg 74%
    03:00 +14°C° 1.2 mm 6 mps 722 mmHg 79%
    04:00 +12°C° 1.2 mm 7 mps 723 mmHg 83%
    05:00 +11°C° 1.2 mm 8 mps 723 mmHg 87%
    06:00 +10°C° 0.5 mm 8 mps 724 mmHg 87%
    07:00 +9°C° 0.5 mm 8 mps 726 mmHg 87%
    08:00 +7°C° 0.5 mm 8 mps 727 mmHg 86%
    09:00 +7°C° 0.1 mm 8 mps 728 mmHg 85%
    10:00 +8°C° 0.1 mm 7 mps 729 mmHg 83%
    11:00 +8°C° 0.1 mm 7 mps 731 mmHg 81%
    12:00 +7°C° 0.1 mm 8 mps 731 mmHg 76%
    13:00 +9°C° 0.1 mm 8 mps 732 mmHg 72%
    14:00 +9°C° 0.1 mm 8 mps 732 mmHg 67%
    15:00 +9°C° 0 mm 8 mps 732 mmHg 66%
    16:00 +9°C° 0 mm 7 mps 733 mmHg 64%
    17:00 +9°C° 0 mm 7 mps 733 mmHg 62%
    18:00 +8°C° 0 mm 6 mps 733 mmHg 66%
    19:00 +7°C° 0 mm 5 mps 734 mmHg 69%
    20:00 +6°C° 0 mm 4 mps 734 mmHg 73%
    21:00 +5°C° 0 mm 5 mps 735 mmHg 74%
    22:00 +5°C° 0 mm 5 mps 735 mmHg 75%
    23:00 +5°C° 0 mm 5 mps 735 mmHg 76%

    Tomorrow, 25 September, Tuesday

    Time Temperature Precipitation Wind Pressure Humidity
    00:00 +5°C° 0.2 mm 5 mps 736 mmHg 79%
    01:00 +5°C° 0.2 mm 5 mps 736 mmHg 82%
    02:00 +5°C° 0.2 mm 5 mps 736 mmHg 85%
    03:00 +3°C° 0 mm 5 mps 737 mmHg 86%
    04:00 +3°C° 0 mm 5 mps 737 mmHg 87%
    05:00 +3°C° 0 mm 4 mps 738 mmHg 88%
    06:00 +3°C° 0 mm 5 mps 738 mmHg 86%
    07:00 +3°C° 0 mm 5 mps 739 mmHg 85%
    08:00 +3°C° 0 mm 5 mps 740 mmHg 83%
    09:00 +5°C° 0.1 mm 6 mps 740 mmHg 76%
    10:00 +7°C° 0.1 mm 6 mps 741 mmHg 70%
    11:00 +8°C° 0.1 mm 6 mps 741 mmHg 63%
    12:00 +9°C° 0.1 mm 6 mps 741 mmHg 59%
    13:00 +9°C° 0.1 mm 6 mps 741 mmHg 54%
    14:00 +10°C° 0.1 mm 7 mps 741 mmHg 50%
    15:00 +10°C° 0.1 mm 6 mps 742 mmHg 53%
    16:00 +9°C° 0.1 mm 5 mps 742 mmHg 57%
    17:00 +8°C° 0.1 mm 5 mps 742 mmHg 60%
    18:00 +7°C° 0.1 mm 4 mps 743 mmHg 65%
    19:00 +7°C° 0.1 mm 3 mps 743 mmHg 71%
    20:00 +6°C° 0.1 mm 2 mps 744 mmHg 76%
    21:00 +5°C° 0 mm 2 mps 744 mmHg 77%
    22:00 +4°C° 0 mm 2 mps 745 mmHg 78%
    23:00 +4°C° 0 mm 2 mps 745 mmHg 78%

    Day after tomorrow, 26 September, Wednesday

    Time Temperature Precipitation Wind Pressure Humidity
    00:00 +3°C° 0 mm 2 mps 745 mmHg 80%
    01:00 +3°C° 0 mm 2 mps 746 mmHg 82%
    02:00 +2°C° 0 mm 2 mps 746 mmHg 83%
    03:00 +2°C° 0 mm 2 mps 746 mmHg 84%
    04:00 +3°C° 0 mm 1 mps 746 mmHg 86%
    05:00 +2°C° 0 mm 1 mps 746 mmHg 87%
    06:00 +3°C° 0 mm 1 mps 747 mmHg 84%
    07:00 +4°C° 0 mm 1 mps 747 mmHg 80%
    08:00 +5°C° 0 mm 1 mps 747 mmHg 77%
    09:00 +7°C° 0 mm 1 mps 747 mmHg 68%
    10:00 +8°C° 0 mm 2 mps 747 mmHg 59%
    11:00 +10°C° 0 mm 2 mps 747 mmHg 50%
    12:00 +12°C° 0 mm 2 mps 746 mmHg 46%
    13:00 +13°C° 0 mm 2 mps 746 mmHg 43%
    14:00 +13°C° 0 mm 2 mps 746 mmHg 40%
    15:00 +13°C° 0 mm 2 mps 745 mmHg 44%
    16:00 +13°C° 0 mm 2 mps 744 mmHg 48%
    17:00 +13°C° 0 mm 1 mps 744 mmHg 52%
    18:00 +10°C° 0 mm 2 mps 744 mmHg 54%
    19:00 +8°C° 0 mm 2 mps 744 mmHg 56%
    20:00 +7°C° 0 mm 2 mps 743 mmHg 58%
    21:00 +7°C° 0 mm 3 mps 743 mmHg 57%
    22:00 +8°C° 0 mm 3 mps 743 mmHg 55%
    23:00 +7°C° 0 mm 4 mps 743 mmHg 54%

    27 September, Thursday

    Time Temperature Precipitation Wind Pressure Humidity
    00:00 +7°C° 0 mm 4 mps 743 mmHg 55%
    01:00 +7°C° 0 mm 4 mps 743 mmHg 56%
    02:00 +7°C° 0 mm 4 mps 743 mmHg 57%
    03:00 +7°C° 0 mm 4 mps 742 mmHg 57%
    04:00 +7°C° 0 mm 4 mps 742 mmHg 56%
    05:00 +6°C° 0 mm 4 mps 741 mmHg 56%
    06:00 +7°C° 0 mm 4 mps 741 mmHg 55%
    07:00 +7°C° 0 mm 5 mps 741 mmHg 55%
    08:00 +7°C° 0 mm 5 mps 741 mmHg 54%
    09:00 +9°C° 0 mm 5 mps 741 mmHg 52%
    10:00 +10°C° 0 mm 5 mps 741 mmHg 49%
    11:00 +13°C° 0 mm 5 mps 741 mmHg 47%
    12:00 +14°C° 0 mm 5 mps 741 mmHg 47%
    13:00 +15°C° 0 mm 5 mps 740 mmHg 48%
    14:00 +16°C° 0 mm 6 mps 740 mmHg 48%
    15:00 +16°C° 0 mm 5 mps 740 mmHg 52%
    16:00 +17°C° 0 mm 4 mps 740 mmHg 55%
    17:00 +17°C° 0 mm 4 mps 739 mmHg 59%
    18:00 +14°C° 0 mm 4 mps 739 mmHg 60%
    19:00 +13°C° 0 mm 3 mps 739 mmHg 62%
    20:00 +11°C° 0 mm 3 mps 739 mmHg 64%
    21:00 +11°C° 0 mm 3 mps 739 mmHg 63%
    22:00 +11°C° 0 mm 3 mps 739 mmHg 62%
    23:00 +11°C° 0 mm 3 mps 739 mmHg 62%

    28 September, Friday

    Time Temperature Precipitation Wind Pressure Humidity
    00:00 +11°C° 0 mm 3 mps 739 mmHg 61%
    01:00 +11°C° 0 mm 3 mps 739 mmHg 61%
    02:00 +12°C° 0 mm 3 mps 739 mmHg 60%
    03:00 +12°C° 0 mm 2 mps 738 mmHg 62%
    04:00 +10°C° 0 mm 2 mps 738 mmHg 64%
    05:00 +9°C° 0 mm 2 mps 737 mmHg 66%
    06:00 +10°C° 0 mm 3 mps 737 mmHg 66%
    07:00 +11°C° 0 mm 3 mps 737 mmHg 65%
    08:00 +11°C° 0 mm 3 mps 736 mmHg 64%
    09:00 +13°C° 0 mm 4 mps 736 mmHg 59%
    10:00 +15°C° 0 mm 4 mps 736 mmHg 54%
    11:00 +17°C° 0 mm 5 mps 736 mmHg 49%
    12:00 +19°C° 0 mm 5 mps 735 mmHg 48%
    13:00 +20°C° 0 mm 5 mps 734 mmHg 46%
    14:00 +20°C° 0 mm 5 mps 734 mmHg 45%
    15:00 +20°C° 0 mm 5 mps 733 mmHg 48%
    16:00 +19°C° 0 mm 4 mps 733 mmHg 50%
    17:00 +18°C° 0 mm 4 mps 732 mmHg 53%
    18:00 +17°C° 0 mm 4 mps 732 mmHg 53%
    19:00 +15°C° 0 mm 4 mps 732 mmHg 52%
    20:00 +14°C° 0 mm 4 mps 732 mmHg 52%
    21:00 +14°C° 0 mm 4 mps 732 mmHg 54%
    22:00 +14°C° 0 mm 3 mps 732 mmHg 56%
    23:00 +14°C° 0 mm 3 mps 732 mmHg 57%

    29 September, Saturday

    Time Temperature Precipitation Wind Pressure Humidity
    00:00 +13°C° 0 mm 3 mps 732 mmHg 62%
    01:00 +13°C° 0 mm 2 mps 732 mmHg 67%
    02:00 +13°C° 0 mm 2 mps 732 mmHg 73%
    03:00 +12°C° 0 mm 2 mps 732 mmHg 78%
    04:00 +12°C° 0 mm 2 mps 732 mmHg 83%
    05:00 +10°C° 0 mm 2 mps 732 mmHg 88%
    06:00 +10°C° 0.9 mm 2 mps 732 mmHg 89%
    07:00 +10°C° 0.9 mm 3 mps 733 mmHg 91%
    08:00 +10°C° 0.9 mm 4 mps 733 mmHg 92%
    09:00 +10°C° 1.1 mm 4 mps 734 mmHg 90%
    10:00 +10°C° 1.1 mm 4 mps 734 mmHg 87%
    11:00 +10°C° 1.1 mm 4 mps 735 mmHg 85%
    12:00 +9°C° 0.2 mm 5 mps 735 mmHg 79%
    13:00 +10°C° 0.2 mm 5 mps 735 mmHg 73%
    14:00 +11°C° 0.2 mm 6 mps 736 mmHg 67%
    15:00 +10°C° 0 mm 5 mps 736 mmHg 66%
    16:00 +10°C° 0 mm 5 mps 736 mmHg 66%
    17:00 +10°C° 0 mm 5 mps 737 mmHg 65%
    18:00 +10°C° 0 mm 4 mps 737 mmHg 67%
    19:00 +7°C° 0 mm 4 mps 738 mmHg 68%
    20:00 +6°C° 0 mm 4 mps 738 mmHg 69%
    21:00 +6°C° 0 mm 4 mps 739 mmHg 70%
    22:00 +5°C° 0 mm 4 mps 739 mmHg 71%
    23:00 +4°C° 0 mm 4 mps 740 mmHg 72%
    Show more